Regional Weather Roundup
Issued by NWS

Home | Current Version | Previous Version | Graphics & Text | Print | Product List | Glossary On
Versions: 1 2 3 4 5 6 7 8 9 10 11 12 13 14 15 16 17 18 19 20 21 22 23 24 25 26 27
000
ASUS45 KCYS 141010
RWRWY

WYOMING REGIONAL WEATHER ROUNDUP
NATIONAL WEATHER SERVICE CHEYENNE WY
300 AM MST THU DEC 14 2017

NOTE:  "FAIR" INDICATES FEW OR NO CLOUDS BELOW 12,000 FEET
WITH NO SIGNIFICANT WEATHER AND/OR OBSTRUCTIONS TO VISIBILITY.

WYZ001-141100-
YELLOWSTONE NATIONAL PARK

CITY           SKY/WX    TMP DP  RH WIND       PRES   REMARKS
LK YELLOWSTONE   N/A      7   4  87 CALM      30.34S
W YELLOWSTONE  NOT AVBL

$$
WYZ002>013-054>058-071-098>099-141100-
NORTHERN WYOMING

CITY           SKY/WX    TMP DP  RH WIND       PRES   REMARKS
JACKSON        FAIR      15  13  91 VRB5        N/A  WCI   8
CODY           FAIR      23  22  96 S5        30.29R WCI  17
GREYBULL       NOT AVBL
WORLAND        FAIR      27  24  89 CALM      30.26R
SHERIDAN       CLOUDY    38  23  55 NW25G33   30.22R WCI  27
BUFFALO        CLOUDY    38  18  44 NW33G47   30.16F WCI  25
GILLETTE       CLOUDY    35  24  64 NW23G35   30.14R WCI  23
HULETT         CLOUDY    34  25  69 NW10G22   30.12R WCI  26
NEWCASTLE      CLOUDY    32  23  69 W6        30.11F WCI  26

$$
WYZ014>020-022>026-101>103-141100-
CENTRAL WYOMING

CITY           SKY/WX    TMP DP  RH WIND       PRES   REMARKS
BIG PINEY      FAIR       9   7  92 CALM      30.25R
PINEDALE       CLOUDY     9   5  85 NW3       30.26R FOG
DUBOIS         FAIR      19  14  79 NW7       30.24R WCI  10
LANDER         CLOUDY    27  20  75 W12       30.26R WCI  17
RIVERTON       CLOUDY    24  22  91 W9        30.27R WCI  14
CASPER         MOCLDY    25  23  92 W6        30.20S WCI  18
DOUGLAS        CLOUDY    32  27  81 NW9       30.17F WCI  24

$$
WYZ021-027>030-104>119-141100-
SOUTHERN WYOMING

CITY           SKY/WX    TMP DP  RH WIND       PRES   REMARKS
EVANSTON       CLOUDY    23  21  92 N7        30.26R WCI  15
FORT BRIDGER   CLOUDY    26  26  97 W6        30.27F WCI  20
ROCK SPRINGS   MOCLDY    23  19  85 VRB3      30.24S
DIXON          FAIR      27  19  73 N3        30.21S
RAWLINS        CLOUDY    25  22  88 NW12      30.21R WCI  14
SARATOGA       CLOUDY    25  25 100 W12       30.19S WCI  14
LARAMIE        LGT SNOW  22  21  96 NW8       30.14S FOG     WCI  12
CHEYENNE       CLOUDY    26  24  92 NW10      30.15R WCI  16
TORRINGTON     FAIR      35  24  64 NW13      30.15S WCI  26
PINE BLUFFS    CLOUDY    32  23  69 MISG      30.14F

$$




USA.gov is the U.S. government's official web portal to all federal, state and local government web resources and services.